Theta_e
348 350 350 350 351 351 350 349 350 349 349 348 348 347 345 349 348 347 353 359 361 362 361 360 360 359 360 359 358 358 358 357 357 355 358 356 357 357 356 356 355 355 354
349 349 349 350 350 351 351 350 348 348 347 348 348 348 349 349 349 348 351 357 361 361 362 361 360 359 359 358 359 358 358 357 358 355 356 356 355 357 356 356 356 355 355
350 350 349 349 350 351 352 351 350 350 348 348 348 349 349 349 349 351 352 355 359 361 361 361 361 360 359 358 357 357 358 357 356 356 356 355 356 357 356 356 356 355 355
352 350 349 349 350 350 350 350 349 347 348 347 347 349 349 348 350 350 352 353 355 357 358 359 359 361 361 360 359 358 358 358 357 357 358 357 356 357 357 357 357 356 356
353 350 350 350 350 351 350 350 348 348 346 347 347 349 348 348 349 350 349 351 353 354 352 355 360 361 360 359 359 358 357 355 350 347 354 358 359 359 358 358 359 359 358
354 351 351 351 351 350 349 348 347 346 347 346 347 348 345 346 347 347 347 349 349 351 351 351 351 353 358 358 359 356 355 352 350 347 347 356 357 359 359 358 357 358 358
354 352 352 352 352 350 348 348 347 345 345 347 344 342 344 346 346 347 350 350 350 350 348 350 347 351 353 356 356 355 353 354 353 351 348 354 355 356 357 357 358 359 358
353 353 352 352 352 348 348 348 348 344 345 345 341 339 335 340 342 344 344 345 347 349 349 350 349 351 351 353 352 354 355 354 354 354 352 354 355 355 357 357 357 357 357
352 355 353 352 351 349 347 347 348 346 341 344 344 342 333 331 335 342 343 342 343 344 347 348 348 349 351 352 352 354 355 355 355 355 356 356 356 355 355 357 357 356 355
352 355 355 353 353 350 347 344 347 348 345 341 343 345 342 341 336 334 341 344 344 343 344 344 345 346 348 348 350 352 352 354 357 357 357 357 357 356 356 355 355 354 354
351 354 355 353 352 350 350 346 346 346 346 345 343 344 343 341 341 338 334 338 344 345 346 346 346 346 347 347 348 348 350 354 356 357 357 358 357 355 354 355 356 355 354
346 348 352 353 353 350 349 347 348 348 347 347 346 345 344 342 339 337 335 337 339 345 347 348 347 347 348 349 349 350 351 353 354 355 356 357 358 356 356 357 356 356 355
344 346 349 349 351 350 346 344 342 344 346 346 347 347 348 346 347 343 341 340 339 342 343 348 350 350 349 352 351 353 354 353 353 352 352 353 355 357 357 356 355 355 353
343 347 349 348 351 351 351 349 345 341 345 347 348 348 350 349 350 348 346 341 338 338 339 343 348 350 352 354 353 351 354 350 350 349 348 348 351 353 355 355 355 354 354
342 343 347 346 346 350 352 350 348 347 351 351 352 351 350 352 352 351 349 346 343 336 335 341 343 348 350 351 351 353 354 347 345 346 346 344 345 349 350 351 351 350 349
344 343 345 346 344 347 347 352 353 353 352 353 354 352 351 351 352 351 349 348 345 343 337 341 347 348 349 349 349 351 349 346 345 344 345 343 345 347 347 347 347 347 345
341 342 343 344 344 345 346 350 353 353 350 352 353 352 351 352 350 349 349 348 346 344 340 343 345 348 347 347 346 346 346 348 350 344 344 343 342 343 344 345 344 344 343
340 338 340 342 343 344 345 348 352 352 350 349 351 349 349 352 352 350 349 347 347 346 344 341 343 345 345 344 344 344 343 344 349 345 343 342 340 340 340 340 340 340 339
339 336 336 338 340 343 342 344 351 353 354 354 353 351 352 352 348 349 349 347 347 347 345 342 342 342 344 345 346 346 347 349 350 346 340 339 339 338 337 335 335 334 332
339 337 337 339 341 342 341 344 349 353 352 352 353 351 350 349 348 348 347 347 344 342 343 341 341 340 341 342 344 342 342 343 344 346 345 343 341 339 338 334 333 333 328
340 340 336 337 338 338 339 345 352 351 350 350 349 349 348 348 344 343 344 343 341 340 338 339 338 338 339 339 340 341 341 341 343 343 344 344 344 343 343 338 340 337 331
342 341 339 338 338 340 341 343 349 350 348 346 345 344 342 341 340 335 336 340 341 341 339 337 337 337 338 340 341 341 340 339 337 343 342 341 340 341 342 341 337 334 331
343 342 342 344 346 350 341 340 345 349 347 346 344 344 337 331 330 329 329 335 336 335 339 341 338 337 338 340 342 340 339 339 338 342 341 338 338 338 341 340 331 330 329
344 344 345 347 350 352 336 336 342 350 347 344 344 344 335 330 331 328 330 332 336 334 334 341 340 340 341 343 344 343 341 340 340 340 341 333 337 337 339 339 330 329 327
348 347 349 350 351 353 332 333 342 348 343 343 343 341 332 330 328 326 329 328 328 332 329 331 331 330 333 334 339 341 337 336 334 335 335 335 336 335 337 337 339 330 326
353 353 352 353 346 352 329 328 341 345 342 339 338 334 328 328 324 322 326 324 323 325 328 334 332 330 330 333 334 341 339 335 331 330 335 333 336 334 333 339 339 340 337
Wind_Speed
3 2 3 2 2 2 2 2 2 2 0 2 2 2 2 2 3 4 3 12 12 10 9 8 7 7 7 5 5 6 5 5 4 5 6 6 7 7 6 5 4 4 3
3 3 3 3 3 2 2 2 2 2 1 1 2 3 4 4 3 4 5 5 13 12 11 10 9 8 7 6 5 5 5 5 5 4 5 4 6 6 5 6 6 6 5
5 5 4 3 3 3 3 2 2 1 2 2 3 4 4 4 3 4 4 4 5 13 12 10 9 10 10 9 7 7 6 4 4 4 4 5 6 6 6 6 6 5 5
5 4 4 4 3 3 3 3 2 3 2 2 2 3 3 3 4 4 4 4 4 3 8 11 10 10 11 10 11 10 9 7 6 5 6 6 7 8 7 8 8 7 7
5 4 4 3 4 3 3 3 2 2 2 2 3 3 3 3 3 2 4 5 5 4 2 7 9 12 14 13 13 12 9 7 1 8 12 10 9 9 10 10 9 10 9
5 4 3 4 4 3 3 3 4 2 2 2 2 2 2 3 3 4 4 4 5 6 3 5 2 7 16 15 13 5 11 7 7 10 19 14 12 12 11 11 10 10 10
6 5 4 4 4 4 4 4 2 4 2 1 2 2 3 5 6 5 4 4 6 7 7 8 5 6 6 13 13 10 18 18 18 20 21 17 14 14 13 12 11 12 12
2 5 6 6 5 3 4 4 3 2 2 3 2 0 3 2 2 7 6 6 8 5 7 9 8 8 6 4 9 13 16 14 17 20 19 18 15 14 14 13 12 12 12
8 8 6 5 5 5 5 4 4 5 3 2 3 2 0 2 3 1 4 6 7 6 7 7 9 9 9 7 10 10 11 10 14 16 17 15 13 13 13 13 12 12 12
5 7 6 5 5 5 5 4 4 3 3 3 1 4 2 1 1 4 1 3 6 8 8 7 8 9 10 8 11 13 13 13 14 15 16 16 14 12 13 12 12 12 11
3 3 4 4 5 4 4 6 5 5 3 3 3 2 3 2 2 3 3 3 2 6 6 7 7 7 9 8 7 9 14 14 14 14 14 14 13 13 13 13 13 12 12
3 4 6 5 4 4 5 5 4 5 5 3 3 3 3 3 2 3 3 3 3 2 4 5 6 6 6 6 8 13 12 12 12 12 12 12 11 13 13 13 13 13 10
3 5 4 4 3 3 4 4 4 4 4 4 5 3 3 3 2 2 2 1 2 2 2 2 4 5 6 6 6 10 10 10 10 11 12 12 10 10 11 11 10 8 9
4 2 4 3 2 4 4 4 2 3 4 5 5 5 1 3 3 2 2 2 1 2 2 3 1 2 3 4 5 6 5 5 7 8 8 10 9 9 8 8 7 6 8
2 4 3 4 3 3 4 4 3 4 4 4 5 4 4 3 3 3 3 3 3 1 2 2 2 1 1 2 2 3 3 3 5 7 7 9 6 9 10 10 10 10 8
5 4 4 4 3 4 3 3 3 3 5 3 3 4 3 1 3 2 2 3 2 2 2 2 2 2 1 0 2 3 3 5 7 7 7 9 9 9 9 9 9 9 9
6 6 7 6 6 5 4 3 4 4 5 5 3 3 4 3 1 2 2 1 2 3 3 2 2 1 3 2 1 1 2 3 3 4 5 5 7 9 9 10 10 10 10
5 6 5 6 7 5 5 4 5 5 5 3 3 3 4 2 2 2 3 4 3 3 2 3 1 1 3 2 2 2 2 2 3 2 4 7 9 9 11 11 11 11 11
6 6 5 8 8 6 5 5 4 4 4 4 2 3 2 2 0 1 2 2 2 1 2 2 2 1 2 2 1 1 1 1 2 4 5 6 7 9 10 10 11 12 12
6 6 5 5 3 3 3 3 3 5 4 3 3 2 1 2 2 2 2 2 2 2 2 2 2 2 1 1 0 0 0 1 1 1 2 2 2 5 8 9 10 11 11
6 5 5 4 4 4 4 5 6 5 5 6 4 3 2 1 2 0 1 1 1 1 2 2 1 1 1 1 1 1 1 2 2 3 3 2 2 3 3 6 8 10 10
6 5 6 6 6 5 9 9 6 5 5 6 5 3 3 3 5 4 6 1 2 2 1 1 1 2 2 1 1 2 2 2 3 1 4 5 3 4 3 3 6 8 8
7 8 7 7 7 5 9 6 9 6 6 6 6 5 3 2 3 3 5 4 5 5 4 2 2 2 1 1 1 1 0 0 1 2 3 3 2 4 3 4 6 7 9
9 8 7 7 5 5 9 9 10 6 6 6 6 6 5 3 1 1 1 2 1 3 5 2 3 3 4 3 3 1 1 1 3 1 2 2 2 3 4 3 5 5 7
7 8 5 7 8 7 11 11 11 8 7 7 6 6 5 4 1 2 1 1 2 3 3 2 4 4 3 5 7 4 2 1 1 2 2 2 2 4 3 3 2 6 6
8 6 7 8 10 9 11 12 11 7 8 6 5 5 5 5 6 4 2 2 1 2 3 3 2 4 6 8 6 1 2 1 1 1 1 2 1 2 3 1 2 4 6
Wind_Direction
183 180 190 185 195 162 160 165 161 164 87 319 334 345 311 280 234 223 210 215 206 212 211 212 215 221 231 230 225 226 214 245 245 232 217 207 205 214 198 208 190 192 222
178 184 187 192 192 193 182 179 195 201 221 246 289 282 279 260 215 204 206 217 210 210 213 205 216 219 228 234 233 224 226 240 253 231 242 234 223 211 203 198 190 199 196
186 182 178 190 195 188 190 200 229 222 243 237 266 267 275 262 232 218 208 213 236 217 209 214 220 221 227 225 224 235 236 249 255 249 247 265 245 220 225 216 211 217 228
186 181 182 189 184 184 187 187 207 240 240 249 279 277 266 257 244 224 217 217 227 235 225 217 223 233 235 230 233 228 225 224 234 256 256 244 245 245 235 223 225 228 233
196 180 190 193 174 195 202 190 182 195 234 234 254 265 278 258 244 212 219 223 219 227 238 242 232 235 237 234 237 238 241 246 203 313 303 269 257 251 248 241 233 228 226
189 181 193 196 188 180 213 206 200 179 206 213 235 268 258 245 218 215 223 221 181 233 173 257 252 253 247 242 238 231 271 253 190 240 261 267 257 255 250 243 238 235 235
184 192 189 201 196 199 196 200 161 188 190 148 106 305 272 249 241 236 238 239 225 214 199 220 209 242 257 250 251 217 239 226 209 222 236 250 249 241 244 240 236 237 236
243 203 193 201 189 177 192 174 180 137 154 174 146 106 314 329 268 240 229 231 237 229 227 224 220 237 241 243 251 254 249 234 222 221 233 243 255 239 237 234 235 237 241
201 224 203 193 190 175 193 179 182 173 161 161 220 165 249 271 314 309 247 238 237 231 232 227 229 233 235 240 247 252 259 245 240 243 244 242 241 242 243 238 237 236 238
205 219 207 191 192 185 184 189 185 162 135 165 224 238 234 172 358 331 283 252 234 239 236 236 241 240 238 241 242 245 252 251 247 243 252 252 246 243 245 248 250 248 244
269 226 202 189 205 188 200 184 172 175 172 156 195 161 218 245 231 230 294 322 267 236 236 234 231 231 236 240 239 242 245 245 240 246 252 249 246 246 248 245 247 250 256
202 206 209 191 202 194 192 201 181 179 183 168 174 206 183 191 179 180 225 282 273 276 226 220 224 224 228 231 233 243 242 243 242 236 241 243 246 245 247 246 243 249 252
208 221 180 175 193 196 189 180 175 197 181 196 196 214 204 207 180 187 175 251 286 304 317 245 231 223 228 220 232 243 249 242 239 235 230 226 226 236 237 241 253 252 251
185 184 179 172 181 184 185 181 180 195 197 218 218 218 231 233 206 185 197 188 291 287 307 291 237 234 231 233 240 258 270 268 268 251 248 232 209 216 219 231 238 247 250
158 150 162 164 166 177 207 174 186 204 215 220 227 206 211 213 212 206 202 188 183 261 296 312 309 346 279 182 180 192 212 240 266 271 254 238 201 202 213 218 222 223 232
148 151 137 170 187 181 193 192 188 224 224 238 242 229 223 206 224 197 198 188 192 182 248 229 264 296 323 219 196 208 230 249 260 243 212 203 199 192 212 224 228 231 238
151 173 178 190 200 193 182 194 204 218 224 231 212 221 230 208 201 194 196 171 192 184 226 284 263 311 294 311 304 314 307 295 299 277 230 174 200 198 208 221 224 225 230
157 181 185 192 212 191 179 209 194 196 221 260 255 195 240 153 211 187 182 193 202 204 212 267 293 289 254 310 336 331 355 302 294 259 212 201 208 211 216 217 217 219 222
183 176 188 207 194 186 188 221 200 229 207 206 224 188 168 168 174 189 185 168 176 200 217 220 280 285 291 358 352 22 348 314 265 243 231 227 217 219 225 227 222 222 226
185 183 191 199 193 184 212 235 222 222 201 173 142 100 107 216 208 192 195 188 165 186 218 239 249 283 311 337 93 172 317 318 304 358 16 358 277 246 246 239 234 232 230
184 185 174 178 180 205 228 219 212 196 161 123 111 98 61 112 118 150 236 259 204 210 204 229 241 241 246 230 217 354 314 341 343 3 346 340 310 281 269 242 253 243 234
175 181 191 186 192 204 205 213 187 156 158 134 146 135 113 73 60 33 28 354 228 258 248 249 244 245 263 291 355 12 4 12 353 43 335 320 351 322 304 261 251 252 249
172 197 192 187 198 199 204 193 173 160 154 153 163 162 125 79 58 18 14 32 54 30 260 225 235 232 273 213 139 168 175 155 248 306 322 301 342 317 331 320 277 256 256
194 197 203 194 183 208 187 177 180 154 147 156 166 164 148 171 112 55 12 315 295 356 356 283 236 231 241 248 238 233 170 265 271 333 340 291 6 304 333 347 344 306 294
193 199 190 190 197 207 180 178 159 154 152 160 161 158 168 161 132 219 154 289 313 283 319 15 78 59 19 239 211 174 195 197 246 76 39 330 354 317 326 313 359 8 340
198 189 198 199 198 207 176 171 171 157 154 156 152 145 179 164 158 173 154 118 318 271 296 205 115 67 43 42 41 235 168 174 162 216 50 323 292 321 299 208 359 28 10